When you browse on this site, cookies collect data to enhance your experience and personalize the content and advertising you see.
Visit our Privacy Policy to learn more. By continuing to use the site, you agree to this use of cookies and data.
  • In United Kingdom
  • List of Countries
  • For 7 days
  • Water Temperature
  • Satellite Maps
  • Weather Map
  • Weather Widgets
  • user-avatar
    Login

    Hourly Weather Ravda

    Today, 25 May, Saturday

    Time Temperature Precipitation Wind Pressure Humidity
    00:00 +14°C° 0 mm 3 mps 756 mmHg 90%
    01:00 +13°C° 0 mm 4 mps 756 mmHg 89%
    02:00 +13°C° 0 mm 3 mps 756 mmHg 89%
    03:00 +12°C° 0 mm 4 mps 756 mmHg 89%
    04:00 +12°C° 0 mm 4 mps 757 mmHg 89%
    05:00 +12°C° 0 mm 4 mps 757 mmHg 89%
    06:00 +14°C° 0 mm 4 mps 757 mmHg 84%
    07:00 +16°C° 0 mm 5 mps 757 mmHg 79%
    08:00 +19°C° 0 mm 5 mps 758 mmHg 73%
    09:00 +20°C° 0.1 mm 4 mps 758 mmHg 70%
    10:00 +21°C° 0.1 mm 4 mps 758 mmHg 66%
    11:00 +22°C° 0.1 mm 3 mps 758 mmHg 63%
    12:00 +24°C° 0.5 mm 3 mps 758 mmHg 62%
    13:00 +24°C° 0.5 mm 3 mps 758 mmHg 62%
    14:00 +25°C° 0.5 mm 3 mps 758 mmHg 61%
    15:00 +24°C° 0.5 mm 2 mps 758 mmHg 63%
    16:00 +24°C° 0.5 mm 2 mps 758 mmHg 65%
    17:00 +24°C° 0.5 mm 2 mps 758 mmHg 67%
    18:00 +23°C° 0.1 mm 2 mps 758 mmHg 72%
    19:00 +20°C° 0.1 mm 2 mps 758 mmHg 76%
    20:00 +19°C° 0.1 mm 2 mps 758 mmHg 81%
    21:00 +18°C° 0 mm 2 mps 758 mmHg 83%
    22:00 +17°C° 0 mm 2 mps 759 mmHg 85%
    23:00 +17°C° 0 mm 3 mps 759 mmHg 88%

    Tomorrow, 26 May, Sunday

    Time Temperature Precipitation Wind Pressure Humidity
    00:00 +16°C° 0 mm 3 mps 759 mmHg 88%
    01:00 +16°C° 0 mm 3 mps 759 mmHg 87%
    02:00 +16°C° 0 mm 3 mps 760 mmHg 87%
    03:00 +16°C° 0 mm 3 mps 760 mmHg 87%
    04:00 +16°C° 0 mm 3 mps 760 mmHg 87%
    05:00 +14°C° 0 mm 3 mps 760 mmHg 87%
    06:00 +17°C° 0 mm 3 mps 760 mmHg 82%
    07:00 +19°C° 0 mm 3 mps 761 mmHg 77%
    08:00 +21°C° 0 mm 3 mps 761 mmHg 72%
    09:00 +24°C° 0 mm 2 mps 761 mmHg 66%
    10:00 +26°C° 0 mm 1 mps 761 mmHg 60%
    11:00 +25°C° 0 mm 0 mps 761 mmHg 54%
    12:00 +27°C° 0 mm 1 mps 761 mmHg 53%
    13:00 +28°C° 0 mm 2 mps 761 mmHg 52%
    14:00 +28°C° 0 mm 3 mps 761 mmHg 51%
    15:00 +27°C° 0 mm 3 mps 761 mmHg 55%
    16:00 +26°C° 0 mm 3 mps 761 mmHg 59%
    17:00 +26°C° 0 mm 4 mps 761 mmHg 63%
    18:00 +23°C° 0 mm 4 mps 761 mmHg 69%
    19:00 +21°C° 0 mm 3 mps 761 mmHg 75%
    20:00 +19°C° 0 mm 3 mps 761 mmHg 81%
    21:00 +19°C° 0 mm 2 mps 761 mmHg 82%
    22:00 +18°C° 0 mm 2 mps 762 mmHg 83%
    23:00 +18°C° 0 mm 2 mps 762 mmHg 84%

    Day after tomorrow, 27 May, Monday

    Time Temperature Precipitation Wind Pressure Humidity
    00:00 +19°C° 0 mm 1 mps 762 mmHg 85%
    01:00 +19°C° 0 mm 1 mps 762 mmHg 86%
    02:00 +18°C° 0 mm 1 mps 762 mmHg 87%
    03:00 +18°C° 0 mm 1 mps 762 mmHg 88%
    04:00 +16°C° 0 mm 0 mps 761 mmHg 88%
    05:00 +16°C° 0 mm 0 mps 761 mmHg 89%
    06:00 +18°C° 0 mm 0 mps 762 mmHg 83%
    07:00 +22°C° 0 mm 1 mps 762 mmHg 77%
    08:00 +24°C° 0 mm 1 mps 762 mmHg 71%
    09:00 +25°C° 0 mm 2 mps 762 mmHg 66%
    10:00 +25°C° 0 mm 3 mps 762 mmHg 62%
    11:00 +26°C° 0 mm 4 mps 762 mmHg 58%
    12:00 +26°C° 0 mm 4 mps 762 mmHg 58%
    13:00 +26°C° 0 mm 4 mps 762 mmHg 58%
    14:00 +26°C° 0 mm 5 mps 761 mmHg 58%
    15:00 +25°C° 0 mm 4 mps 761 mmHg 61%
    16:00 +23°C° 0 mm 4 mps 761 mmHg 65%
    17:00 +23°C° 0 mm 4 mps 761 mmHg 68%
    18:00 +21°C° 0 mm 4 mps 761 mmHg 76%
    19:00 +19°C° 0 mm 3 mps 761 mmHg 83%
    20:00 +17°C° 0 mm 3 mps 761 mmHg 91%
    21:00 +17°C° 0 mm 2 mps 761 mmHg 92%
    22:00 +17°C° 0 mm 2 mps 761 mmHg 93%
    23:00 +16°C° 0 mm 2 mps 761 mmHg 94%

    28 May, Tuesday

    Time Temperature Precipitation Wind Pressure Humidity
    00:00 +16°C° 0 mm 2 mps 761 mmHg 94%
    01:00 +16°C° 0 mm 2 mps 760 mmHg 94%
    02:00 +16°C° 0 mm 2 mps 760 mmHg 94%
    03:00 +16°C° 0 mm 2 mps 760 mmHg 94%
    04:00 +16°C° 0 mm 2 mps 759 mmHg 94%
    05:00 +16°C° 0 mm 2 mps 759 mmHg 94%
    06:00 +17°C° 0 mm 2 mps 759 mmHg 88%
    07:00 +19°C° 0 mm 2 mps 759 mmHg 82%
    08:00 +21°C° 0 mm 2 mps 759 mmHg 75%
    09:00 +23°C° 0 mm 2 mps 758 mmHg 70%
    10:00 +25°C° 0 mm 3 mps 758 mmHg 65%
    11:00 +26°C° 0 mm 3 mps 758 mmHg 60%
    12:00 +26°C° 0 mm 3 mps 757 mmHg 60%
    13:00 +27°C° 0 mm 4 mps 757 mmHg 60%
    14:00 +27°C° 0 mm 4 mps 756 mmHg 60%
    15:00 +26°C° 0 mm 4 mps 756 mmHg 63%
    16:00 +26°C° 0 mm 4 mps 756 mmHg 66%
    17:00 +25°C° 0 mm 4 mps 756 mmHg 69%
    18:00 +24°C° 0 mm 3 mps 756 mmHg 75%
    19:00 +21°C° 0 mm 3 mps 756 mmHg 80%
    20:00 +20°C° 0 mm 3 mps 756 mmHg 86%
    21:00 +20°C° 0 mm 3 mps 756 mmHg 83%
    22:00 +19°C° 0 mm 3 mps 756 mmHg 80%
    23:00 +19°C° 0 mm 4 mps 756 mmHg 77%

    29 May, Wednesday

    Time Temperature Precipitation Wind Pressure Humidity
    00:00 +19°C° 0 mm 3 mps 756 mmHg 75%
    01:00 +18°C° 0 mm 3 mps 756 mmHg 74%
    02:00 +17°C° 0 mm 3 mps 756 mmHg 72%
    03:00 +17°C° 0 mm 4 mps 756 mmHg 76%
    04:00 +17°C° 0 mm 4 mps 756 mmHg 80%
    05:00 +17°C° 0 mm 4 mps 756 mmHg 84%
    06:00 +19°C° 0 mm 3 mps 756 mmHg 78%
    07:00 +21°C° 0 mm 3 mps 757 mmHg 73%
    08:00 +24°C° 0 mm 3 mps 757 mmHg 68%
    09:00 +26°C° 0 mm 3 mps 757 mmHg 63%
    10:00 +27°C° 0 mm 3 mps 757 mmHg 58%
    11:00 +29°C° 0 mm 3 mps 757 mmHg 52%
    12:00 +29°C° 0 mm 3 mps 757 mmHg 51%
    13:00 +30°C° 0 mm 3 mps 757 mmHg 50%
    14:00 +30°C° 0 mm 4 mps 757 mmHg 48%
    15:00 +30°C° 0 mm 3 mps 757 mmHg 50%
    16:00 +30°C° 0 mm 3 mps 757 mmHg 52%
    17:00 +30°C° 0 mm 3 mps 757 mmHg 55%
    18:00 +28°C° 0 mm 3 mps 757 mmHg 59%
    19:00 +26°C° 0 mm 4 mps 757 mmHg 64%
    20:00 +23°C° 0 mm 4 mps 757 mmHg 69%
    21:00 +22°C° 0 mm 3 mps 758 mmHg 71%
    22:00 +21°C° 0 mm 3 mps 758 mmHg 73%
    23:00 +20°C° 0 mm 2 mps 758 mmHg 75%

    30 May, Thursday

    Time Temperature Precipitation Wind Pressure Humidity
    00:00 +20°C° 0 mm 2 mps 758 mmHg 76%
    01:00 +19°C° 0 mm 2 mps 759 mmHg 78%
    02:00 +19°C° 0 mm 2 mps 759 mmHg 80%
    03:00 +19°C° 0 mm 2 mps 759 mmHg 82%
    04:00 +19°C° 0 mm 2 mps 759 mmHg 84%
    05:00 +19°C° 0 mm 2 mps 759 mmHg 86%
    06:00 +21°C° 0 mm 2 mps 759 mmHg 80%
    07:00 +24°C° 0 mm 2 mps 759 mmHg 74%
    08:00 +26°C° 0 mm 2 mps 760 mmHg 68%
    09:00 +27°C° 0.2 mm 2 mps 760 mmHg 65%
    10:00 +28°C° 0.2 mm 2 mps 760 mmHg 62%
    11:00 +29°C° 0.2 mm 2 mps 760 mmHg 60%
    12:00 +29°C° 0.4 mm 2 mps 759 mmHg 59%
    13:00 +29°C° 0.4 mm 3 mps 759 mmHg 59%
    14:00 +29°C° 0.4 mm 3 mps 759 mmHg 59%
    15:00 +29°C° 0.2 mm 3 mps 759 mmHg 60%
    16:00 +28°C° 0.2 mm 2 mps 759 mmHg 62%
    17:00 +28°C° 0.2 mm 2 mps 759 mmHg 64%
    18:00 +26°C° 0.1 mm 2 mps 759 mmHg 69%
    19:00 +24°C° 0.1 mm 1 mps 759 mmHg 73%
    20:00 +23°C° 0.1 mm 1 mps 759 mmHg 78%
    21:00 +20°C° 0 mm 0 mps 759 mmHg 79%
    22:00 +19°C° 0 mm 0 mps 759 mmHg 81%
    23:00 +19°C° 0 mm 0 mps 759 mmHg 83%
    Show more